CW9533 Torre Faro Messina IT current weather conditions

sailwx.info

Wind from 030 at 2 knots gusting 7

Air temperature 21.7° C
Dewpoint 15.5° C

Last reported at 2014-Oct-01 17:36 UTC.
Time now 2014-Oct-01 18:18 UTC

Location: N 38°16' E 015°39'.
View on Google Maps.

See reports from other nearby stations

  
Tides and Currents Weather Stations Pressure Air Temp Water Temp Dewpoint Dewpoint Depression Visibility Wind Speed Wind Dir Waves Ship Positions
date/time (UTC)wind fromknots sea level pressurealtimeterstation pressurevisibilityair tempwater tempwave heightnotes
2014-Oct-01 17:36 030 2 gusting 7 21.7
2014-Oct-01 17:21 030 3 gusting 7 21.7
2014-Oct-01 17:06 032 5 gusting 10 22.2
2014-Oct-01 16:51 035 6 gusting 10 22.2
2014-Oct-01 16:36 044 3 gusting 11 22.2
2014-Oct-01 16:21 042 4 gusting 8 22.8
2014-Oct-01 16:06 041 5 gusting 10 22.8
2014-Oct-01 15:51 044 3 gusting 8 23.3
2014-Oct-01 15:36 028 5 gusting 10 23.3
2014-Oct-01 15:21 032 4 gusting 11 23.3
2014-Oct-01 15:06 058 7 gusting 13 22.8
2014-Oct-01 14:51 060 6 gusting 13 23.3
2014-Oct-01 14:36 059 6 gusting 10 23.3
2014-Oct-01 14:21 057 7 gusting 14 23.3
2014-Oct-01 14:06 053 6 gusting 12 23.3
2014-Oct-01 13:51 063 5 gusting 12 23.3
2014-Oct-01 13:36 056 6 gusting 11 23.9
2014-Oct-01 13:21 052 4 gusting 13 23.9
2014-Oct-01 13:06 057 6 gusting 13 23.9
2014-Oct-01 12:51 059 8 gusting 13 23.9
2014-Oct-01 12:36 033 4 gusting 10 23.9
2014-Oct-01 12:21 035 6 gusting 9 23.9
2014-Oct-01 12:06 042 4 gusting 12 23.3
2014-Oct-01 11:51 053 6 gusting 18 23.3
2014-Oct-01 11:36 053 6 gusting 14 23.3
2014-Oct-01 11:21 059 9 gusting 14 23.3
2014-Oct-01 11:06 055 9 gusting 14 23.3
2014-Oct-01 10:51 059 6 gusting 10 23.3
2014-Oct-01 10:36 057 6 gusting 13 23.3
2014-Oct-01 10:21 058 7 gusting 15 23.3
2014-Oct-01 10:05 059 6 gusting 12 23.3
2014-Oct-01 09:50 066 6 gusting 13 22.8
2014-Oct-01 09:35 064 8 gusting 13 22.8
2014-Oct-01 09:20 066 6 gusting 13 22.8
2014-Oct-01 09:05 063 6 gusting 12 22.8
2014-Oct-01 08:50 061 6 gusting 10 22.8
2014-Oct-01 08:35 053 4 gusting 9 22.8
2014-Oct-01 08:20 055 6 gusting 11 22.2
2014-Oct-01 08:05 055 4 gusting 9 22.2
2014-Oct-01 07:50 056 6 gusting 10 22.2
2014-Oct-01 07:35 036 4 gusting 9 22.2
2014-Oct-01 07:20 027 2 gusting 7 21.7
2014-Oct-01 07:05 026 3 gusting 9 21.7
2014-Oct-01 06:50 027 4 gusting 9 21.1
2014-Oct-01 06:35 028 5 gusting 7 21.1
2014-Oct-01 06:20 028 2 gusting 7 21.1
2014-Oct-01 06:05 028 2 gusting 6 20.6
2014-Oct-01 05:50 028 2 gusting 6 20.0
2014-Oct-01 05:35 028 2 gusting 6 20.0
2014-Oct-01 05:20 028 3 gusting 5 19.4
2014-Oct-01 05:05 028 2 gusting 5 19.4
2014-Oct-01 04:50 028 2 gusting 5 19.4
2014-Oct-01 04:35 028 2 gusting 5 19.4
2014-Oct-01 04:20 028 2 gusting 6 19.4
2014-Oct-01 04:05 028 2 gusting 5 19.4
2014-Oct-01 03:50 028 3 gusting 6 20.0
2014-Oct-01 03:35 028 2 gusting 5 20.0
2014-Oct-01 03:20 028 3 gusting 6 20.0
2014-Oct-01 03:05 028 2 gusting 6 20.0
2014-Oct-01 02:50 028 1 gusting 6 20.0
2014-Oct-01 02:35 028 2 gusting 6 20.0
2014-Oct-01 02:20 028 3 gusting 7 20.0
2014-Oct-01 02:05 028 4 gusting 7 20.0
2014-Oct-01 01:50 031 4 gusting 7 20.0
2014-Oct-01 01:35 033 5 gusting 8 20.0
2014-Oct-01 01:20 035 4 gusting 6 20.0
2014-Oct-01 01:05 035 3 gusting 6 20.0
2014-Oct-01 00:50 035 2 gusting 6 20.0
2014-Oct-01 00:35 035 2 gusting 6 20.0
2014-Oct-01 00:20 035 3 gusting 6 20.0
2014-Oct-01 00:05 035 2 gusting 5 20.0
2014-Sep-30 23:50 035 3 gusting 6 20.6
2014-Sep-30 23:35 035 2 gusting 5 20.6
2014-Sep-30 23:20 035 3 gusting 6 20.6
2014-Sep-30 23:05 035 2 gusting 6 20.6
2014-Sep-30 22:50 035 2 gusting 5 20.6
2014-Sep-30 22:35 035 2 gusting 6 20.6
2014-Sep-30 22:20 035 2 gusting 6 20.6
2014-Sep-30 22:05 035 2 gusting 5 20.6
2014-Sep-30 21:50 035 1 gusting 5 20.6
2014-Sep-30 21:35 035 1 gusting 5 20.6
2014-Sep-30 21:19 035 1 gusting 5 21.1
2014-Sep-30 21:04 035 2 gusting 4 21.1
2014-Sep-30 20:49 035 2 gusting 5 21.1
2014-Sep-30 20:34 035 1 gusting 5 21.1
2014-Sep-30 20:19 035 3 gusting 6 21.1
2014-Sep-30 20:04 035 1 gusting 4 21.1
2014-Sep-30 19:49 035 1 gusting 4 21.1
2014-Sep-30 19:34 035 2 gusting 5 21.7
2014-Sep-30 19:19 035 5 gusting 6 21.7
2014-Sep-30 19:04 035 4 gusting 7 21.7
2014-Sep-30 18:49 035 4 gusting 6 21.7
2014-Sep-30 18:34 036 2 gusting 6 21.7
2014-Sep-30 18:19 037 2 gusting 8 21.7
2014-Sep-30 18:04 038 2 gusting 7 21.7
2014-Sep-30 17:49 038 3 gusting 8 21.7
2014-Sep-30 17:34 043 4 gusting 7 22.2
2014-Sep-30 17:19 044 5 gusting 10 22.2
2014-Sep-30 17:04 049 5 gusting 9 22.2
2014-Sep-30 16:49 050 6 gusting 10 22.2
2014-Sep-30 16:34 049 4 gusting 10 22.8
2014-Sep-30 16:19 038 6 gusting 10 22.8
2014-Sep-30 16:04 035 5 gusting 7 23.3
2014-Sep-30 15:49 031 5 gusting 9 23.3
2014-Sep-30 15:34 023 6 gusting 12 23.3
2014-Sep-30 15:19 028 3 gusting 9 23.3
2014-Sep-30 15:04 025 5 gusting 10 23.9
2014-Sep-30 14:49 038 3 gusting 7 23.9
2014-Sep-30 14:34 042 5 gusting 10 24.4
2014-Sep-30 14:19 024 2 gusting 9 23.9
2014-Sep-30 14:04 028 3 gusting 6 24.4
2014-Sep-30 13:49 021 5 gusting 9 23.9
2014-Sep-30 13:34 020 5 gusting 11 23.9
2014-Sep-30 13:19 317 3 gusting 10 24.4
2014-Sep-30 13:04 336 6 gusting 11 24.4
2014-Sep-30 12:49 351 6 gusting 11 24.4
2014-Sep-30 12:34 009 4 gusting 12 25.0
2014-Sep-30 12:19 009 6 gusting 10 24.4
2014-Sep-30 12:04 084 4 gusting 13 24.4
2014-Sep-30 11:49 105 5 gusting 13 24.4
2014-Sep-30 11:34 081 7 gusting 12 24.4
2014-Sep-30 11:19 097 6 gusting 12 24.4
2014-Sep-30 11:04 111 5 gusting 10 24.4
2014-Sep-30 10:49 136 5 gusting 9 23.9
2014-Sep-30 10:34 177 2 gusting 6 23.9
2014-Sep-30 10:19 210 4 gusting 6 23.9
2014-Sep-30 10:04 213 2 gusting 6 23.9
2014-Sep-30 09:49 213 2 gusting 6 23.9
2014-Sep-30 09:34 213 3 gusting 6 23.9
2014-Sep-30 09:19 213 1 gusting 5 23.3
2014-Sep-30 09:04 213 1 gusting 5 23.3
2014-Sep-30 08:49 213 2 gusting 5 23.3
2014-Sep-30 08:34 213 23.3
2014-Sep-30 08:19 213 0 gusting 4 23.3
2014-Sep-30 08:04 213 0 gusting 3 22.8
2014-Sep-30 07:49 213 0 gusting 3 22.2
2014-Sep-30 07:34 213 1 gusting 3 22.2
2014-Sep-30 07:19 213 0 gusting 2 22.2
2014-Sep-30 07:04 213 21.7
2014-Sep-30 06:49 213 21.7
2014-Sep-30 06:34 213 21.7
2014-Sep-30 06:19 213 21.1
2014-Sep-30 06:04 213 20.6
2014-Sep-30 05:48 213 19.4
2014-Sep-30 04:48 213 3 gusting 6 18.9
2014-Sep-30 04:33 213 2 gusting 5 18.9
2014-Sep-30 04:18 213 1 gusting 4 18.9
2014-Sep-30 04:03 213 1 gusting 4 18.9
2014-Sep-30 03:48 213 2 gusting 5 18.9
2014-Sep-30 03:33 213 2 gusting 6 18.9
2014-Sep-30 03:18 213 2 gusting 5 18.9
2014-Sep-30 03:03 213 3 gusting 5 18.9
2014-Sep-30 02:48 213 2 gusting 5 18.9
2014-Sep-30 02:33 213 1 gusting 5 18.9
2014-Sep-30 02:18 213 3 gusting 5 18.9
2014-Sep-30 02:03 213 3 gusting 5 18.9
2014-Sep-30 01:48 213 3 gusting 5 18.9
2014-Sep-30 01:33 213 2 gusting 5 19.4
2014-Sep-30 01:18 213 1 gusting 3 19.4
2014-Sep-30 01:03 213 0 gusting 2 19.4
2014-Sep-30 00:48 213 1 gusting 3 19.4
2014-Sep-30 00:33 213 1 gusting 4 19.4
2014-Sep-30 00:18 213 2 gusting 4 19.4
2014-Sep-30 00:03 213 3 gusting 4 19.4
2014-Sep-29 23:48 213 1 gusting 4 19.4
2014-Sep-29 23:33 213 0 gusting 4 19.4
2014-Sep-29 23:18 213 1 gusting 4 19.4
2014-Sep-29 23:03 213 2 gusting 4 19.4
2014-Sep-29 22:48 213 1 gusting 4 20.0
2014-Sep-29 22:33 213 0 gusting 2 20.0
2014-Sep-29 22:18 213 0 gusting 4 20.0
2014-Sep-29 22:03 213 2 gusting 4 20.0
2014-Sep-29 21:48 213 1 gusting 4 20.0
2014-Sep-29 21:33 213 2 gusting 3 20.0
2014-Sep-29 21:18 213 1 gusting 4 20.0
2014-Sep-29 21:03 213 2 gusting 4 20.0
2014-Sep-29 20:48 213 0 gusting 3 20.6
2014-Sep-29 20:33 213 0 gusting 3 20.6
2014-Sep-29 20:18 213 0 gusting 2 20.6
2014-Sep-29 20:03 213 20.6
2014-Sep-29 19:48 213 20.6
2014-Sep-29 19:33 213 20.6
2014-Sep-29 19:18 213 0 gusting 3 20.6
2014-Sep-29 19:03 213 21.1
2014-Sep-29 18:48 213 21.7
2014-Sep-29 18:33 213 1 gusting 4 21.7
2014-Sep-29 18:18 213 0 gusting 3 21.1
2014-Sep-29 18:03 213 1 gusting 4 21.1